Weather History for Carlsbad, NM

Change the Weather History Date:

Wednesday, October 24, 2012

  Actual Average Record
Temperature  
Mean Temperature 72 °F -  
Max Temperature 89 °F 73 °F 90 °F (1950)
Min Temperature 54 °F 44 °F 31 °F (1980)
Cooling Degree Days 6    
Growing Degree Days 22 (Base 50)    
Moisture  
Dew Point 38 °F    
Average Humidity 38    
Maximum Humidity 73    
Minimum Humidity 12    
Precipitation  
Precipitation 0.00 in - - ()
Sea Level Pressure  
Sea Level Pressure 29.73 in    
Wind  
Wind Speed 5 mph (South)    
Max Wind Speed 16 mph    
Max Gust Speed 21 mph    
Visibility 10 miles    
Events      
Averages and records for this station are not official NWS values.
T = Trace of Precipitation, MM = Missing Value Source: NWS Daily Summary

Daily Weather History Graph

Daily Weather History Graph

Search for Another Location

Airport:

Trip Planner

Search our weather history database for the weather conditions in past years. The results will help you decide how hot, cold, wet, or windy it might be!

Date:

Astronomy

Oct. 24, 2012 Rise Set
Actual Time 7:08 AM MDT 6:13 PM MDT
Civil Twilight 6:42 AM MDT 6:38 PM MDT
Nautical Twilight 6:14 AM MDT 7:07 PM MDT
Astronomical Twilight 5:45 AM MDT 7:36 PM MDT
Moon 3:16 PM MDT (10/24) 2:21 AM MDT (10/24)
Length of Visible Light 11h 55m
Length of Day
11h 05m
Waxing Gibbous, 76% of the Moon is Illuminated
Oct 24
Waxing Gibbous
Oct 29
Full
Nov 6
Last Quarter
Nov 13
New
Nov 20
First Quarter

Hourly Weather History & Observations

Time (MDT) Temp. Heat Index Dew Point Humidity Pressure Visibility Wind Dir Wind Speed Gust Speed Precip Events Conditions
12:53 AM 59.0 °F - 39.9 °F 49% 29.75 in 10.0 mi Calm Calm - N/A   Clear
1:53 AM 62.1 °F - 43.0 °F 50% 29.74 in 10.0 mi SSE 10.4 mph - N/A   Clear
2:53 AM 57.0 °F - 44.1 °F 62% 29.74 in 10.0 mi Calm Calm - N/A   Clear
3:53 AM 54.0 °F - 42.1 °F 64% 29.74 in 10.0 mi Calm Calm - N/A   Clear
4:53 AM 55.9 °F - 44.1 °F 64% 29.74 in 10.0 mi Calm Calm - N/A   Clear
5:53 AM 54.0 °F - 43.0 °F 66% 29.75 in 10.0 mi Calm Calm - N/A   Clear
6:53 AM 54.0 °F - 39.9 °F 59% 29.78 in 10.0 mi Calm Calm - N/A   Clear
7:53 AM 57.0 °F - 44.1 °F 62% 29.78 in 10.0 mi SSE 9.2 mph - N/A   Clear
8:53 AM 60.1 °F - 46.9 °F 62% 29.79 in 10.0 mi South 5.8 mph - N/A   Clear
9:53 AM 64.4 °F - 55.4 °F 73% 29.90 in 10.0 mi South 6.9 mph - N/A   Clear
10:53 AM 72.0 °F - 54.0 °F 53% 29.76 in 10.0 mi SSE 6.9 mph - N/A   Clear
11:53 AM 78.1 °F - 57.0 °F 48% 29.73 in 10.0 mi ESE 4.6 mph - N/A   Clear
12:53 PM 82.0 °F 81.7 °F 57.0 °F 42% 29.70 in 10.0 mi East 6.9 mph - N/A   Clear
1:53 PM 86.0 °F - 48.0 °F 27% 29.66 in 10.0 mi Variable 3.5 mph - N/A   Clear
2:53 PM 87.8 °F - 37.4 °F 17% 29.79 in 10.0 mi Calm Calm - N/A   Clear
3:03 PM 89.6 °F - 32.0 °F 13% 29.78 in 2.5 mi WSW 16.1 mph 20.7 mph N/A   Haze
3:12 PM 89.6 °F - 30.2 °F 12% 29.78 in 10.0 mi WSW 16.1 mph - N/A   Clear
3:53 PM 87.1 °F - 30.0 °F 13% 29.63 in 10.0 mi WSW 12.7 mph - N/A   Clear
4:53 PM 84.0 °F - 27.0 °F 13% 29.63 in 10.0 mi SW 5.8 mph - N/A   Clear
5:53 PM 82.9 °F - 25.0 °F 12% 29.64 in 10.0 mi WSW 12.7 mph - N/A   Clear
6:53 PM 75.9 °F - 24.1 °F 15% 29.66 in 10.0 mi WSW 13.8 mph - N/A   Clear
7:53 PM 71.1 °F - 26.1 °F 19% 29.68 in 10.0 mi SE 10.4 mph - N/A   Clear
8:53 PM 73.0 °F - 26.1 °F 17% 29.67 in 10.0 mi South 12.7 mph - N/A   Clear
9:53 PM 69.8 °F - 28.4 °F 21% 29.80 in 10.0 mi South 11.5 mph - N/A   Clear
10:53 PM 69.1 °F - 28.0 °F 22% 29.66 in 10.0 mi South 15.0 mph - N/A   Clear
11:53 PM 68.0 °F - 28.0 °F 22% 29.66 in 10.0 mi SE 5.8 mph - N/A   Clear